User: anonymous   Login
Location: Brienzwiler
(46.7508°N, 8.1014°E)
Time: 07:28:02
(UTC+00:00)
Language:

Cosmos 2322 Rocket - Orbit

View from above orbital plane
View from above orbital plane
View from above satellite
View from above satellite

Ground track
Ground track

The orbit data is extracted from the following two-line orbital elements,

1 23705U 95058B   20273.63672414 +.00000015 +00000-0 +32057-4 0  9998
2 23705 071.0249 030.3600 0014840 268.9463 090.9959 14.15142629286719
Epoch (UTC): 29 September 2020 15:16:52
Eccentricity: 0.0014840
inclination: 71.0249°
perigee height: 831 km
apogee height: 852 km
right ascension of ascending node: 30.3600°
argument of perigee: 268.9463°
revolutions per day: 14.15142629
mean anomaly at epoch: 90.9959°
orbit number at epoch: 28671

The dashed part of the orbit path shows where the satellite is in the earth's shadow,  

DLR